Simultaneous Nadir Overpasses (SNOs) Predictions

Prediction of SNOs between NOAA-19 and TERRA Satellite Orbit:

Table of predicted SNOs for the next 14.0 days since TLE Epoch: 5/22/2012
Index Date (NOAA-19) Time (NOAA-19) NOAA-19 Lat,Lon Date (TERRA) Time (TERRA) TERRA Lat,Lon Distance(km) Time Diff (sec)
1 05/24/2012 07:15:40 -69.01,-109.67 05/24/2012 07:16:00 -68.98,-109.63 3.06 20
2 05/24/2012 08:06:41 68.76, 57.91 05/24/2012 08:05:29 68.76, 57.73 6.90 72
3 05/26/2012 11:09:31 69.41, 11.33 05/26/2012 11:10:42 69.29, 12.07 32.28 71
4 05/26/2012 12:00:22 -68.93, 179.27 05/26/2012 12:00:17 -68.91, 179.21 2.84 5
5 05/26/2012 12:51:07 67.85, -12.08 05/26/2012 12:50:00 67.90, -14.36 95.73 67
6 05/28/2012 15:54:07 69.05, -59.33 05/28/2012 15:55:02 69.04, -59.32 0.89 55
7 05/28/2012 16:45:05 -68.90, 108.13 05/28/2012 16:44:33 -68.88, 108.11 2.00 32
8 05/30/2012 20:38:49 69.00,-130.43 05/30/2012 20:39:18 69.00,-130.44 0.37 29
9 05/30/2012 21:29:48 -68.87, 36.99 05/30/2012 21:28:49 -68.84, 36.99 3.17 59
10 06/02/2012 00:32:46 -69.90, -10.17 06/02/2012 00:33:54 -69.78, -8.11 80.27 68
11 06/02/2012 01:23:31 68.95, 158.46 06/02/2012 01:23:34 68.94, 158.43 1.55 3
12 06/02/2012 02:14:22 -68.36, -33.51 06/02/2012 02:13:11 -68.45, -34.55 43.73 71
13 06/04/2012 05:17:13 -69.04, -80.08 06/04/2012 05:18:22 -69.06, -80.13 3.02 69
14 06/04/2012 06:08:13 68.90, 87.35 06/04/2012 06:07:49 68.93, 87.35 3.38 24




NCC Satellite Simultaneous Nadir Overpasses (SNOs) Prediction Service
